Marshalltown, IA

4:23 AM CDT on June 27, 2017 (GMT -0500)
Marshalltown Municipal

Weather History for KMIW - March, 2011

Change the Weather History Date:

Thursday, March 3, 2011

  Actual Average Record
Temperature  
Mean Temperature 37 °F 30 °F  
Max Temperature 47 °F 39 °F 47 °F (2011)
Min Temperature 26 °F 20 °F -16 °F (2014)
Degree Days  
Heating Degree Days 28 35  
Month to date heating degree days 104 107  
Since 1 July heating degree days 5413 5510  
Cooling Degree Days 0 0  
Month to date cooling degree days 0 0  
Year to date cooling degree days 0 0  
Moisture  
Dew Point 30 °F    
Average Humidity 79    
Maximum Humidity 92    
Minimum Humidity 65    
Precipitation  
Precipitation T in 0.05 in 0.04 in (2014)
Month to date precipitation T 0.15  
Year to date precipitation 0.29  
Sea Level Pressure  
Sea Level Pressure 30.08 in    
Wind  
Wind Speed 13 mph (SE)    
Max Wind Speed 22 mph    
Max Gust Speed 28 mph    
Visibility 10 miles    
Events Rain    
T = Trace of Precipitation, MM = Missing Value Source: NWS Daily Summary

Daily Weather History Graph

Daily Weather History Graph

Search for Another Location

Airport or City:

Trip Planner

Search our weather history database for the weather conditions in past years. The results will help you decide how hot, cold, wet, or windy it might be!

Date:

Astronomy

Mar. 03, 2011 Rise Set
Actual Time 6:44 AM CST 6:03 PM CST
Civil Twilight 6:16 AM CST 6:31 PM CST
Nautical Twilight 5:43 AM CST 7:04 PM CST
Astronomical Twilight 5:11 AM CST 7:36 PM CST
Moon 5:51 AM CST (3/3) 5:17 PM CST (3/3)
Length of Visible Light 12h 15m
Length of Day
11h 19m
Waning Crescent, 1% of the Moon is Illuminated
Mar 3
Waning Crescent
Mar 4
New
Mar 12
First Quarter
Mar 19
Full
Mar 26
Last Quarter

Hourly Weather History & Observations

Time (CST) Temp. Windchill Dew Point Humidity Pressure Visibility Wind Dir Wind Speed Gust Speed Precip Events Conditions
12:53 AM 26.1 °F 16.2 °F 19.9 °F 78% 30.30 in 10.0 mi ESE 10.4 mph - N/A   Clear
1:53 AM 28.9 °F 16.9 °F 21.9 °F 75% 30.27 in 10.0 mi SE 17.3 mph - N/A   Clear
2:53 AM 28.9 °F 16.9 °F 23.0 °F 78% 30.24 in 10.0 mi SE 17.3 mph 24.2 mph N/A   Clear
3:53 AM 28.9 °F 16.9 °F 23.0 °F 78% 30.22 in 10.0 mi SE 17.3 mph - N/A   Clear
4:53 AM 28.9 °F 17.7 °F 24.1 °F 82% 30.22 in 10.0 mi SE 15.0 mph - N/A   Clear
5:53 AM 28.9 °F 17.3 °F 24.1 °F 82% 30.20 in 10.0 mi SE 16.1 mph - N/A   Clear
6:53 AM 28.9 °F 16.5 °F 24.1 °F 82% 30.19 in 10.0 mi SE 18.4 mph - N/A   Clear
7:53 AM 30.0 °F 17.9 °F 25.0 °F 82% 30.17 in 10.0 mi SE 18.4 mph - N/A   Partly Cloudy
8:53 AM 32.0 °F 20.8 °F 26.1 °F 79% 30.14 in 10.0 mi SSE 17.3 mph - N/A   Mostly Cloudy
9:53 AM 35.1 °F 25.5 °F 27.0 °F 72% 30.13 in 10.0 mi SSE 15.0 mph - N/A   Mostly Cloudy
10:53 AM 37.0 °F 27.7 °F 28.9 °F 73% 30.10 in 10.0 mi SSE 16.1 mph - N/A   Partly Cloudy
11:53 AM 39.0 °F 30.6 °F 30.0 °F 70% 30.07 in 10.0 mi SSE 15.0 mph - N/A   Mostly Cloudy
12:53 PM 39.9 °F 32.9 °F 33.1 °F 77% 30.04 in 10.0 mi SSE 11.5 mph - 0.00 in Rain Light Rain
1:53 PM 44.1 °F 37.7 °F 33.1 °F 65% 29.99 in 10.0 mi SSE 12.7 mph - 0.00 in   Clear
2:53 PM 46.0 °F 41.4 °F 34.0 °F 63% 29.98 in 10.0 mi SE 9.2 mph - N/A   Clear
3:53 PM 46.0 °F 40.2 °F 34.0 °F 63% 29.95 in 10.0 mi SSE 12.7 mph - N/A   Mostly Cloudy
4:53 PM 46.0 °F 40.2 °F 35.1 °F 66% 29.95 in 10.0 mi SE 12.7 mph - N/A   Clear
5:53 PM 43.0 °F 36.8 °F 35.1 °F 74% 29.94 in 10.0 mi ESE 11.5 mph - N/A   Mostly Cloudy
6:53 PM 39.0 °F 34.0 °F 34.0 °F 82% 29.96 in 10.0 mi ESE 6.9 mph - N/A   Mostly Cloudy
7:53 PM 37.9 °F 33.5 °F 34.0 °F 86% 29.98 in 10.0 mi ENE 5.8 mph - N/A   Overcast
8:53 PM 39.0 °F 34.8 °F 34.0 °F 82% 29.99 in 9.0 mi NE 5.8 mph - N/A   Overcast
9:53 PM 37.9 °F 32.1 °F 35.1 °F 89% 29.98 in 9.0 mi East 8.1 mph - 0.00 in   Overcast
10:53 PM 37.9 °F 30.9 °F 35.1 °F 89% 29.96 in 8.0 mi East 10.4 mph - 0.00 in   Overcast
11:53 PM 39.9 °F 35.8 °F 37.0 °F 89% 29.95 in 8.0 mi East 5.8 mph - N/A   Overcast